Year,Month,Day,Hour,Minute,Value (Times are PST for temperature in C)
2017,01,27,00,00,5.80
2017,01,27,00,01,5.80
2017,01,27,00,02,5.80
2017,01,27,00,03,5.80
2017,01,27,00,04,5.80
2017,01,27,00,05,5.80
2017,01,27,00,06,5.80
2017,01,27,00,07,5.80
2017,01,27,00,08,5.80
2017,01,27,00,09,5.80
2017,01,27,00,10,5.80
2017,01,27,00,11,5.80
2017,01,27,00,12,5.80
2017,01,27,00,13,5.80
2017,01,27,00,14,5.80
2017,01,27,00,15,5.70
2017,01,27,00,16,5.70
2017,01,27,00,17,5.70
2017,01,27,00,18,5.70
2017,01,27,00,19,5.70
2017,01,27,00,20,5.70
2017,01,27,00,21,5.70
2017,01,27,00,22,5.70
2017,01,27,00,23,5.60
2017,01,27,00,24,5.60
2017,01,27,00,25,5.60
2017,01,27,00,26,5.60
2017,01,27,00,27,5.60
2017,01,27,00,28,5.60
2017,01,27,00,29,5.60
2017,01,27,00,30,5.60
2017,01,27,00,31,5.60
2017,01,27,00,32,5.60
2017,01,27,00,33,5.60
2017,01,27,00,34,5.60
2017,01,27,00,35,5.60
2017,01,27,00,36,5.60
2017,01,27,00,37,5.60
2017,01,27,00,38,5.60
2017,01,27,00,39,5.60
2017,01,27,00,40,5.60
2017,01,27,00,41,5.60
2017,01,27,00,42,5.60
2017,01,27,00,43,5.60
2017,01,27,00,44,5.60
2017,01,27,00,45,5.60
2017,01,27,00,46,5.60
2017,01,27,00,47,5.60
2017,01,27,00,48,5.60
2017,01,27,00,49,5.60
2017,01,27,00,50,5.60
2017,01,27,00,51,5.60
2017,01,27,00,52,5.60
2017,01,27,00,53,5.60
2017,01,27,00,54,5.60
2017,01,27,00,55,5.60
2017,01,27,00,56,5.60
2017,01,27,00,57,5.60
2017,01,27,00,58,5.60
2017,01,27,00,59,5.60
2017,01,27,01,00,5.60
2017,01,27,01,01,5.60
2017,01,27,01,02,5.60
2017,01,27,01,03,5.60
2017,01,27,01,04,5.60
2017,01,27,01,05,5.60
2017,01,27,01,06,5.60
2017,01,27,01,07,5.60
2017,01,27,01,08,5.60
2017,01,27,01,09,5.60
2017,01,27,01,10,5.60
2017,01,27,01,11,5.60
2017,01,27,01,12,5.60
2017,01,27,01,13,5.50
2017,01,27,01,14,5.50
2017,01,27,01,15,5.50
2017,01,27,01,16,5.50
2017,01,27,01,17,5.50
2017,01,27,01,18,5.50
2017,01,27,01,19,5.40
2017,01,27,01,20,5.40
2017,01,27,01,21,5.40
2017,01,27,01,22,5.40
2017,01,27,01,23,5.40
2017,01,27,01,24,5.40
2017,01,27,01,25,5.40
2017,01,27,01,26,5.40
2017,01,27,01,27,5.40
2017,01,27,01,28,5.40
2017,01,27,01,29,5.40
2017,01,27,01,30,5.40
2017,01,27,01,31,5.50
2017,01,27,01,32,5.50
2017,01,27,01,33,5.50
2017,01,27,01,34,5.50
2017,01,27,01,35,5.50
2017,01,27,01,36,5.50
2017,01,27,01,37,5.50
2017,01,27,01,38,5.50
2017,01,27,01,39,5.50
2017,01,27,01,40,5.50
2017,01,27,01,41,5.50
2017,01,27,01,42,5.50
2017,01,27,01,43,5.50
2017,01,27,01,44,5.50
2017,01,27,01,45,5.50
2017,01,27,01,46,5.50
2017,01,27,01,47,5.50
2017,01,27,01,48,5.50
2017,01,27,01,49,5.50
2017,01,27,01,50,5.60
2017,01,27,01,51,5.60
2017,01,27,01,52,5.60
2017,01,27,01,53,5.60
2017,01,27,01,54,5.60
2017,01,27,01,55,5.60
2017,01,27,01,56,5.60
2017,01,27,01,57,5.60
2017,01,27,01,58,5.60
2017,01,27,01,59,5.60
2017,01,27,02,00,5.60
2017,01,27,02,01,5.60
2017,01,27,02,02,5.60
2017,01,27,02,03,5.60
2017,01,27,02,04,5.60
2017,01,27,02,05,5.60
2017,01,27,02,06,5.70
2017,01,27,02,07,5.70
2017,01,27,02,08,5.70
2017,01,27,02,09,5.70
2017,01,27,02,10,5.70
2017,01,27,02,11,5.70
2017,01,27,02,12,5.70
2017,01,27,02,13,5.70
2017,01,27,02,14,5.70
2017,01,27,02,15,5.70
2017,01,27,02,16,5.70
2017,01,27,02,17,5.70
2017,01,27,02,18,5.70
2017,01,27,02,19,5.70
2017,01,27,02,20,5.70
2017,01,27,02,21,5.70
2017,01,27,02,22,5.70
2017,01,27,02,23,5.70
2017,01,27,02,24,5.70
2017,01,27,02,25,5.70
2017,01,27,02,26,5.70
2017,01,27,02,27,5.70
2017,01,27,02,28,5.70
2017,01,27,02,29,5.70
2017,01,27,02,30,5.70
2017,01,27,02,31,5.70
2017,01,27,02,32,5.70
2017,01,27,02,33,5.80
2017,01,27,02,34,5.80
2017,01,27,02,35,5.80
2017,01,27,02,36,5.80
2017,01,27,02,37,5.80
2017,01,27,02,38,5.80
2017,01,27,02,39,5.80
2017,01,27,02,40,5.80
2017,01,27,02,41,5.80
2017,01,27,02,42,5.80
2017,01,27,02,43,5.80
2017,01,27,02,44,5.80
2017,01,27,02,45,5.80
2017,01,27,02,46,5.80
2017,01,27,02,47,5.80
2017,01,27,02,48,5.80
2017,01,27,02,49,5.80
2017,01,27,02,50,5.80
2017,01,27,02,51,5.80
2017,01,27,02,52,5.80
2017,01,27,02,53,5.80
2017,01,27,02,54,5.80
2017,01,27,02,55,5.80
2017,01,27,02,56,5.80
2017,01,27,02,57,5.80
2017,01,27,02,58,5.80
2017,01,27,02,59,5.80
2017,01,27,03,00,5.80
2017,01,27,03,01,5.80
2017,01,27,03,02,5.80
2017,01,27,03,03,5.80
2017,01,27,03,04,5.80
2017,01,27,03,05,5.80
2017,01,27,03,06,5.80
2017,01,27,03,07,5.80
2017,01,27,03,08,5.80
2017,01,27,03,09,5.80
2017,01,27,03,10,5.80
2017,01,27,03,11,5.80
2017,01,27,03,12,5.80
2017,01,27,03,13,5.80
2017,01,27,03,14,5.80
2017,01,27,03,15,5.80
2017,01,27,03,16,5.80
2017,01,27,03,17,5.80
2017,01,27,03,18,5.80
2017,01,27,03,19,5.80
2017,01,27,03,20,5.80
2017,01,27,03,21,5.80
2017,01,27,03,22,5.80
2017,01,27,03,23,5.70
2017,01,27,03,24,5.70
2017,01,27,03,25,5.70
2017,01,27,03,26,5.70
2017,01,27,03,27,5.70
2017,01,27,03,28,5.70
2017,01,27,03,29,5.70
2017,01,27,03,30,5.70
2017,01,27,03,31,5.70
2017,01,27,03,32,5.70
2017,01,27,03,33,5.70
2017,01,27,03,34,5.70
2017,01,27,03,35,5.70
2017,01,27,03,36,5.70
2017,01,27,03,37,5.70
2017,01,27,03,38,5.70
2017,01,27,03,39,5.70
2017,01,27,03,40,5.70
2017,01,27,03,41,5.70
2017,01,27,03,42,5.70
2017,01,27,03,43,5.70
2017,01,27,03,44,5.70
2017,01,27,03,45,5.80
2017,01,27,03,46,5.70
2017,01,27,03,47,5.80
2017,01,27,03,48,5.80
2017,01,27,03,49,5.80
2017,01,27,03,50,5.80
2017,01,27,03,51,5.80
2017,01,27,03,52,5.80
2017,01,27,03,53,5.80
2017,01,27,03,54,5.80
2017,01,27,03,55,5.80
2017,01,27,03,56,5.80
2017,01,27,03,57,5.80
2017,01,27,03,58,5.80
2017,01,27,03,59,5.80
2017,01,27,04,00,5.80
2017,01,27,04,01,5.80
2017,01,27,04,02,5.80
2017,01,27,04,03,5.80
2017,01,27,05,04,5.70
2017,01,27,05,05,5.70
2017,01,27,05,06,5.70
2017,01,27,05,07,5.70
2017,01,27,05,08,5.70
2017,01,27,05,09,5.70
2017,01,27,05,10,5.70
2017,01,27,05,11,5.70
2017,01,27,05,12,5.70
2017,01,27,05,13,5.70
2017,01,27,05,14,5.70
2017,01,27,05,15,5.80
2017,01,27,05,16,5.80
2017,01,27,05,17,5.80
2017,01,27,05,18,5.80
2017,01,27,05,19,5.80
2017,01,27,05,20,5.80
2017,01,27,05,21,5.80
2017,01,27,05,22,5.80
2017,01,27,05,23,5.80
2017,01,27,05,24,5.80
2017,01,27,05,25,5.80
2017,01,27,05,26,5.80
2017,01,27,05,27,5.80
2017,01,27,05,28,5.80
2017,01,27,05,29,5.80
2017,01,27,05,30,5.80
2017,01,27,05,31,5.80
2017,01,27,05,32,5.80
2017,01,27,05,33,5.90
2017,01,27,05,34,5.90
2017,01,27,05,35,5.90
2017,01,27,05,36,5.90
2017,01,27,05,37,5.90
2017,01,27,05,38,5.90
2017,01,27,05,39,5.90
2017,01,27,05,40,5.90
2017,01,27,05,41,5.90
2017,01,27,05,42,5.90
2017,01,27,05,43,5.90
2017,01,27,05,44,5.90
2017,01,27,05,45,5.90
2017,01,27,05,46,5.90
2017,01,27,05,47,5.90
2017,01,27,05,48,5.90
2017,01,27,05,49,5.90
2017,01,27,05,50,5.90
2017,01,27,05,51,5.90
2017,01,27,05,52,5.90
2017,01,27,05,53,5.90
2017,01,27,05,54,5.90
2017,01,27,05,55,5.90
2017,01,27,05,56,5.90
2017,01,27,05,57,5.90
2017,01,27,05,58,5.90
2017,01,27,05,59,5.90
2017,01,27,06,00,5.90
2017,01,27,06,01,5.90
2017,01,27,06,02,5.90
2017,01,27,06,03,5.90
2017,01,27,06,04,5.90
2017,01,27,06,05,5.90
2017,01,27,06,06,5.90
2017,01,27,06,07,5.90
2017,01,27,06,08,5.90
2017,01,27,06,09,6.00
2017,01,27,06,10,6.00
2017,01,27,06,11,6.00
2017,01,27,06,12,6.00
2017,01,27,06,13,6.00
2017,01,27,06,14,6.00
2017,01,27,06,15,6.00
2017,01,27,06,16,6.00
2017,01,27,06,17,6.00
2017,01,27,06,18,6.00
2017,01,27,06,19,5.90
2017,01,27,06,20,5.90
2017,01,27,06,21,5.90
2017,01,27,06,22,5.90
2017,01,27,06,23,5.90
2017,01,27,06,24,5.90
2017,01,27,06,25,5.90
2017,01,27,06,26,5.90
2017,01,27,06,27,5.90
2017,01,27,06,28,5.90
2017,01,27,09,34,6.30
2017,01,27,09,35,6.30
2017,01,27,09,36,6.30
2017,01,27,09,37,6.30
2017,01,27,09,38,6.30
2017,01,27,09,39,6.30
2017,01,27,09,40,6.30
2017,01,27,09,41,6.30
2017,01,27,09,42,6.30
2017,01,27,09,43,6.30
2017,01,27,09,44,6.40
2017,01,27,09,45,6.40
2017,01,27,09,46,6.40
2017,01,27,09,47,6.40
2017,01,27,09,48,6.40
2017,01,27,09,49,6.40
2017,01,27,09,50,6.40
2017,01,27,09,51,6.40
2017,01,27,09,52,6.40
2017,01,27,09,53,6.40
2017,01,27,09,54,6.40
2017,01,27,09,55,6.40
2017,01,27,09,56,6.40
2017,01,27,09,57,6.40
2017,01,27,09,58,6.40
2017,01,27,09,59,6.40
2017,01,27,10,00,6.40
2017,01,27,10,01,6.40
2017,01,27,10,02,6.40
2017,01,27,10,03,6.40
2017,01,27,10,04,6.40
2017,01,27,10,05,6.50
2017,01,27,10,06,6.50
2017,01,27,10,07,6.50
2017,01,27,10,08,6.50
2017,01,27,10,09,6.50
2017,01,27,10,10,6.50
2017,01,27,10,11,6.60
2017,01,27,10,12,6.60
2017,01,27,10,13,6.50
2017,01,27,10,14,6.60
2017,01,27,10,15,6.60
2017,01,27,10,16,6.50
2017,01,27,10,17,6.50
2017,01,27,10,18,6.50
2017,01,27,10,19,6.50
2017,01,27,10,20,6.50
2017,01,27,10,21,6.50
2017,01,27,10,22,6.50
2017,01,27,10,23,6.60
2017,01,27,10,24,6.60
2017,01,27,10,25,6.60
2017,01,27,10,26,6.60
2017,01,27,10,27,6.60
2017,01,27,10,28,6.60
2017,01,27,10,29,6.60
2017,01,27,10,30,6.60
2017,01,27,10,31,6.50
2017,01,27,10,32,6.50
2017,01,27,10,33,6.50
2017,01,27,10,34,6.50
2017,01,27,10,35,6.50
2017,01,27,10,36,6.50
2017,01,27,10,37,6.60
2017,01,27,10,38,6.60
2017,01,27,10,39,6.60
2017,01,27,10,40,6.60
2017,01,27,10,41,6.60
2017,01,27,10,42,6.60
2017,01,27,10,43,6.60
2017,01,27,10,44,6.60
2017,01,27,10,45,6.60
2017,01,27,10,46,6.60
2017,01,27,10,47,6.60
2017,01,27,10,48,6.60
2017,01,27,10,49,6.60
2017,01,27,10,50,6.60
2017,01,27,10,51,6.60
2017,01,27,10,52,6.60
2017,01,27,10,53,6.60
2017,01,27,10,54,6.60
2017,01,27,10,55,6.60
2017,01,27,10,56,6.70
2017,01,27,10,57,6.70
2017,01,27,10,58,6.70
2017,01,27,10,59,6.70
2017,01,27,11,00,6.60
2017,01,27,11,01,6.60
2017,01,27,11,02,6.60
2017,01,27,11,03,6.60
2017,01,27,11,04,6.60
2017,01,27,11,05,6.60
2017,01,27,11,06,6.60
2017,01,27,11,07,6.60
2017,01,27,11,08,6.60
2017,01,27,11,09,6.70
2017,01,27,11,10,6.70
2017,01,27,11,11,6.70
2017,01,27,11,12,6.70
2017,01,27,11,13,6.70
2017,01,27,11,14,6.70
2017,01,27,11,15,6.70
2017,01,27,11,16,6.70
2017,01,27,11,17,6.70
2017,01,27,11,18,6.70
2017,01,27,11,19,6.70
2017,01,27,11,20,6.70
2017,01,27,11,21,6.70
2017,01,27,11,22,6.80
2017,01,27,11,23,6.70
2017,01,27,11,24,6.70
2017,01,27,11,25,6.70
2017,01,27,11,26,6.70
2017,01,27,11,27,6.70
2017,01,27,11,28,6.80
2017,01,27,11,29,6.80
2017,01,27,11,30,6.80
2017,01,27,11,31,6.80
2017,01,27,11,32,6.80
2017,01,27,11,33,6.80
2017,01,27,11,34,6.80
2017,01,27,11,35,6.80
2017,01,27,11,36,6.80
2017,01,27,11,37,6.80
2017,01,27,11,38,6.80
2017,01,27,11,39,6.80
2017,01,27,11,40,6.80
2017,01,27,11,41,6.80
2017,01,27,11,42,6.80
2017,01,27,11,43,6.80
2017,01,27,11,44,6.80
2017,01,27,11,45,6.80
2017,01,27,11,46,6.80
2017,01,27,11,47,6.80
2017,01,27,11,48,6.80
2017,01,27,11,49,6.80
2017,01,27,11,50,6.90
2017,01,27,11,51,6.90
2017,01,27,11,52,6.90
2017,01,27,11,53,6.90
2017,01,27,11,54,7.00
2017,01,27,11,55,7.00
2017,01,27,11,56,7.10
2017,01,27,11,57,7.10
2017,01,27,11,58,7.10
2017,01,27,11,59,7.10
2017,01,27,12,00,7.10
2017,01,27,12,01,7.10
2017,01,27,12,02,7.10
2017,01,27,12,03,7.10
2017,01,27,12,04,7.10
2017,01,27,12,05,7.10
2017,01,27,12,06,7.10
2017,01,27,12,07,7.10
2017,01,27,12,08,7.20
2017,01,27,12,09,7.20
2017,01,27,12,10,7.20
2017,01,27,12,11,7.20
2017,01,27,12,12,7.30
2017,01,27,12,13,7.30
2017,01,27,12,14,7.30
2017,01,27,12,15,7.30
2017,01,27,12,16,7.30
2017,01,27,12,17,7.30
2017,01,27,12,18,7.30
2017,01,27,12,19,7.30
2017,01,27,12,20,7.40
2017,01,27,12,21,7.40
2017,01,27,12,22,7.40
2017,01,27,12,23,7.40
2017,01,27,12,24,7.50
2017,01,27,12,25,7.50
2017,01,27,12,26,7.60
2017,01,27,12,27,7.60
2017,01,27,12,28,7.60
2017,01,27,12,29,7.70
2017,01,27,12,30,7.70
2017,01,27,12,31,7.80
2017,01,27,12,32,7.80
2017,01,27,12,33,7.80
2017,01,27,12,34,7.80
2017,01,27,12,35,7.80
2017,01,27,12,36,7.80
2017,01,27,12,37,7.80
2017,01,27,12,38,7.80
2017,01,27,12,39,7.80
2017,01,27,12,40,7.80
2017,01,27,12,41,7.80
2017,01,27,12,42,7.80
2017,01,27,12,43,7.70
2017,01,27,12,44,7.70
2017,01,27,12,45,7.70
2017,01,27,12,46,7.70
2017,01,27,12,47,7.70
2017,01,27,12,48,7.70
2017,01,27,12,49,7.70
2017,01,27,12,50,7.70
2017,01,27,12,51,7.70
2017,01,27,12,52,7.70
2017,01,27,12,53,7.70
2017,01,27,12,54,7.70
2017,01,27,12,55,7.70
2017,01,27,12,56,7.70
2017,01,27,12,57,7.70
2017,01,27,12,58,7.70
2017,01,27,12,59,7.80
2017,01,27,13,00,7.80
2017,01,27,13,01,7.80
2017,01,27,13,02,7.90
2017,01,27,13,03,7.90
2017,01,27,13,04,7.90
2017,01,27,13,05,7.90
2017,01,27,13,06,8.00
2017,01,27,13,07,8.00
2017,01,27,13,08,8.00
2017,01,27,13,09,8.00
2017,01,27,13,10,8.00
2017,01,27,13,11,7.90
2017,01,27,13,12,7.90
2017,01,27,13,13,7.80
2017,01,27,13,14,7.80
2017,01,27,13,15,7.70
2017,01,27,13,16,7.70
2017,01,27,13,17,7.70
2017,01,27,13,18,7.70
2017,01,27,13,19,7.70
2017,01,27,13,20,7.70
2017,01,27,13,21,7.70
2017,01,27,13,22,7.70
2017,01,27,13,23,7.60
2017,01,27,13,24,7.60
2017,01,27,13,25,7.60
2017,01,27,13,26,7.60
2017,01,27,13,27,7.50
2017,01,27,13,28,7.50
2017,01,27,13,29,7.50
2017,01,27,13,30,7.50
2017,01,27,13,31,7.50
2017,01,27,13,32,7.50
2017,01,27,13,33,7.60
2017,01,27,13,34,7.60
2017,01,27,13,35,7.60
2017,01,27,13,36,7.60
2017,01,27,13,37,7.70
2017,01,27,13,38,7.70
2017,01,27,13,39,7.70
2017,01,27,13,40,7.70
2017,01,27,13,41,7.70
2017,01,27,13,42,7.70
2017,01,27,13,43,7.80
2017,01,27,13,44,7.80
2017,01,27,13,45,7.80
2017,01,27,13,46,7.80
2017,01,27,13,47,7.80
2017,01,27,13,48,7.90
2017,01,27,13,49,7.90
2017,01,27,13,50,7.90
2017,01,27,13,51,8.00
2017,01,27,13,52,8.00
2017,01,27,13,53,8.10
2017,01,27,13,54,8.10
2017,01,27,13,55,8.10
2017,01,27,13,56,8.10
2017,01,27,13,57,8.10
2017,01,27,13,58,8.10
2017,01,27,13,59,8.10
2017,01,27,14,00,8.10
2017,01,27,14,01,8.20
2017,01,27,14,02,8.20
2017,01,27,14,03,8.20
2017,01,27,14,04,8.30
2017,01,27,14,05,8.30
2017,01,27,14,06,8.30
2017,01,27,14,07,8.30
2017,01,27,14,08,8.30
2017,01,27,14,09,8.40
2017,01,27,14,10,8.40
2017,01,27,14,11,8.40
2017,01,27,14,12,8.50
2017,01,27,14,13,8.50
2017,01,27,14,14,8.50
2017,01,27,14,15,8.50
2017,01,27,14,16,8.50
2017,01,27,14,17,8.60
2017,01,27,14,18,8.60
2017,01,27,14,19,8.60
2017,01,27,14,20,8.70
2017,01,27,14,21,8.60
2017,01,27,14,22,8.60
2017,01,27,14,23,8.50
2017,01,27,14,24,8.50
2017,01,27,14,25,8.40
2017,01,27,14,26,8.40
2017,01,27,14,27,8.40
2017,01,27,14,28,8.40
2017,01,27,14,29,8.40
2017,01,27,14,30,8.30
2017,01,27,14,31,8.30
2017,01,27,14,32,8.30
2017,01,27,14,33,8.40
2017,01,27,14,34,8.40
2017,01,27,14,35,8.40
2017,01,27,14,36,8.40
2017,01,27,14,37,8.40
2017,01,27,14,38,8.40
2017,01,27,14,39,8.40
2017,01,27,14,40,8.40
2017,01,27,14,41,8.40
2017,01,27,14,42,8.40
2017,01,27,14,43,8.40
2017,01,27,14,44,8.40
2017,01,27,14,45,8.40
2017,01,27,14,46,8.40
2017,01,27,14,47,8.40
2017,01,27,14,48,8.40
2017,01,27,14,49,8.50
2017,01,27,14,50,8.50
2017,01,27,14,51,8.50
2017,01,27,14,52,8.60
2017,01,27,14,53,8.60
2017,01,27,14,54,8.70
2017,01,27,14,55,8.70
2017,01,27,14,56,8.70
2017,01,27,14,57,8.70
2017,01,27,14,58,8.70
2017,01,27,14,59,8.70
2017,01,27,15,00,8.70
2017,01,27,15,01,8.80
2017,01,27,15,02,8.80
2017,01,27,15,03,8.70
2017,01,27,15,04,8.70
2017,01,27,15,05,8.70
2017,01,27,15,06,8.70
2017,01,27,15,07,8.60
2017,01,27,15,08,8.60
2017,01,27,15,09,8.70
2017,01,27,15,10,8.70
2017,01,27,15,11,8.70
2017,01,27,15,12,8.80
2017,01,27,15,13,8.80
2017,01,27,15,14,8.90
2017,01,27,15,15,8.90
2017,01,27,15,16,9.00
2017,01,27,15,17,9.00
2017,01,27,15,18,9.10
2017,01,27,15,19,9.10
2017,01,27,15,20,9.10
2017,01,27,15,21,9.10
2017,01,27,15,22,9.00
2017,01,27,15,23,9.00
2017,01,27,15,24,8.90
2017,01,27,15,25,8.90
2017,01,27,15,26,8.90
2017,01,27,15,27,8.90
2017,01,27,15,28,8.80
2017,01,27,15,29,8.70
2017,01,27,15,30,8.60
2017,01,27,15,31,8.50
2017,01,27,15,32,8.50
2017,01,27,15,33,8.40
2017,01,27,15,34,8.40
2017,01,27,15,35,8.30
2017,01,27,15,36,8.30
2017,01,27,15,37,8.30
2017,01,27,15,38,8.20
2017,01,27,15,39,8.20
2017,01,27,15,40,8.20
2017,01,27,15,41,8.20
2017,01,27,15,42,8.10
2017,01,27,15,43,8.10
2017,01,27,15,44,8.10
2017,01,27,15,45,8.00
2017,01,27,15,46,8.00
2017,01,27,15,47,8.00
2017,01,27,15,48,8.00
2017,01,27,15,49,7.90
2017,01,27,15,50,7.90
2017,01,27,15,51,7.90
2017,01,27,15,52,7.90
2017,01,27,15,53,7.80
2017,01,27,15,54,7.80
2017,01,27,15,55,7.80
2017,01,27,15,56,7.70
2017,01,27,15,57,7.70
2017,01,27,15,58,7.70
2017,01,27,15,59,7.70
2017,01,27,16,00,7.70
2017,01,27,16,01,7.60
2017,01,27,16,02,7.60
2017,01,27,16,03,7.60
2017,01,27,16,04,7.60
2017,01,27,16,05,7.60
2017,01,27,16,06,7.50
2017,01,27,16,07,7.50
2017,01,27,16,08,7.50
2017,01,27,16,09,7.50
2017,01,27,16,10,7.40
2017,01,27,16,11,7.40
2017,01,27,16,12,7.40
2017,01,27,16,13,7.40
2017,01,27,16,14,7.40
2017,01,27,16,15,7.40
2017,01,27,16,16,7.30
2017,01,27,16,17,7.30
2017,01,27,16,18,7.30
2017,01,27,16,19,7.30
2017,01,27,16,20,7.30
2017,01,27,16,21,7.30
2017,01,27,16,22,7.30
2017,01,27,16,23,7.30
2017,01,27,16,24,7.30
2017,01,27,16,25,7.30
2017,01,27,16,26,7.30
2017,01,27,16,27,7.30
2017,01,27,16,28,7.30
2017,01,27,16,29,7.30
2017,01,27,16,30,7.30
2017,01,27,16,31,7.30
2017,01,27,16,32,7.30
2017,01,27,16,33,7.30
2017,01,27,16,34,7.30
2017,01,27,16,35,7.30
2017,01,27,16,36,7.30
2017,01,27,16,37,7.30
2017,01,27,16,38,7.30
2017,01,27,16,39,7.30
2017,01,27,16,40,7.30
2017,01,27,16,41,7.30
2017,01,27,16,42,7.30
2017,01,27,16,43,7.30
2017,01,27,16,44,7.30
2017,01,27,16,45,7.30
2017,01,27,16,46,7.30
2017,01,27,16,47,7.30
2017,01,27,16,48,7.30
2017,01,27,16,49,7.30
2017,01,27,16,50,7.30
2017,01,27,16,51,7.30
2017,01,27,16,52,7.30
2017,01,27,16,53,7.30
2017,01,27,16,54,7.30
2017,01,27,16,55,7.30
2017,01,27,16,56,7.30
2017,01,27,16,57,7.30
2017,01,27,16,58,7.30
2017,01,27,16,59,7.30
2017,01,27,17,00,7.30
2017,01,27,17,01,7.30
2017,01,27,17,02,7.30
2017,01,27,17,03,7.30
2017,01,27,17,04,7.30
2017,01,27,17,05,7.30
2017,01,27,17,06,7.30
2017,01,27,17,07,7.30
2017,01,27,17,08,7.30
2017,01,27,17,09,7.30
2017,01,27,17,10,7.30
2017,01,27,17,11,7.30
2017,01,27,17,12,7.30
2017,01,27,17,13,7.30
2017,01,27,17,14,7.30
2017,01,27,17,15,7.20
2017,01,27,17,16,7.20
2017,01,27,17,17,7.20
2017,01,27,17,18,7.20
2017,01,27,17,19,7.20
2017,01,27,17,20,7.20
2017,01,27,17,21,7.20
2017,01,27,17,22,7.20
2017,01,27,17,23,7.20
2017,01,27,17,24,7.20
2017,01,27,17,25,7.20
2017,01,27,17,26,7.20
2017,01,27,17,27,7.20
2017,01,27,17,28,7.20
2017,01,27,17,29,7.20
2017,01,27,17,30,7.20
2017,01,27,17,31,7.10
2017,01,27,17,32,7.10
2017,01,27,17,33,7.10
2017,01,27,17,34,7.10
2017,01,27,17,35,7.10
2017,01,27,17,36,7.10
2017,01,27,17,37,7.10
2017,01,27,17,38,7.10
2017,01,27,17,39,7.10
2017,01,27,17,40,7.10
2017,01,27,17,41,7.00
2017,01,27,17,42,7.00
2017,01,27,17,43,7.00
2017,01,27,17,44,7.00
2017,01,27,17,45,7.00
2017,01,27,17,46,7.00
2017,01,27,17,47,7.00
2017,01,27,17,48,7.00
2017,01,27,17,49,7.00
2017,01,27,17,50,7.00
2017,01,27,17,51,7.00
2017,01,27,17,52,7.00
2017,01,27,17,53,7.00
2017,01,27,17,54,7.00
2017,01,27,17,55,7.00
2017,01,27,17,56,7.00
2017,01,27,17,57,7.00
2017,01,27,17,58,7.00
2017,01,27,17,59,7.00
2017,01,27,18,00,7.00
2017,01,27,18,01,7.00
2017,01,27,18,02,6.90
2017,01,27,18,03,6.90
2017,01,27,18,04,6.90
2017,01,27,18,05,6.90
2017,01,27,18,06,6.90
2017,01,27,18,07,6.90
2017,01,27,18,08,6.90
2017,01,27,18,09,6.90
2017,01,27,18,10,6.90
2017,01,27,18,11,6.90
2017,01,27,18,12,6.90
2017,01,27,18,13,6.90
2017,01,27,18,14,6.90
2017,01,27,18,15,6.90
2017,01,27,18,16,6.90
2017,01,27,18,17,6.90
2017,01,27,18,18,6.90
2017,01,27,18,19,6.80
2017,01,27,18,20,6.80
2017,01,27,18,21,6.80
2017,01,27,18,22,6.80
2017,01,27,18,23,6.80
2017,01,27,18,24,6.80
2017,01,27,18,25,6.80
2017,01,27,18,26,6.80
2017,01,27,18,27,6.80
2017,01,27,18,28,6.80
2017,01,27,18,29,6.80
2017,01,27,18,30,6.80
2017,01,27,18,31,6.80
2017,01,27,18,32,6.80
2017,01,27,18,33,6.80
2017,01,27,18,34,6.80
2017,01,27,18,35,6.80
2017,01,27,18,36,6.80
2017,01,27,18,37,6.80
2017,01,27,18,38,6.80
2017,01,27,18,39,6.80
2017,01,27,18,40,6.80
2017,01,27,18,41,6.80
2017,01,27,18,42,6.80
2017,01,27,18,43,6.80
2017,01,27,18,44,6.80
2017,01,27,18,45,6.80
2017,01,27,18,46,6.80
2017,01,27,18,47,6.80
2017,01,27,18,48,6.80
2017,01,27,18,49,6.80
2017,01,27,18,50,6.80
2017,01,27,18,51,6.80
2017,01,27,18,52,6.80
2017,01,27,18,53,6.80
2017,01,27,18,54,6.80
2017,01,27,18,55,6.80
2017,01,27,18,56,6.80
2017,01,27,18,57,6.80
2017,01,27,18,58,6.80
2017,01,27,18,59,6.80
2017,01,27,19,00,6.80
2017,01,27,19,01,6.80
2017,01,27,19,02,6.80
2017,01,27,19,03,6.80
2017,01,27,19,04,6.70
2017,01,27,19,05,6.70
2017,01,27,19,06,6.70
2017,01,27,19,07,6.70
2017,01,27,19,08,6.70
2017,01,27,19,09,6.70
2017,01,27,19,10,6.70
2017,01,27,19,11,6.70
2017,01,27,19,12,6.70
2017,01,27,19,13,6.70
2017,01,27,19,14,6.70
2017,01,27,19,15,6.70
2017,01,27,19,16,6.70
2017,01,27,19,17,6.70
2017,01,27,19,18,6.70
2017,01,27,19,19,6.70
2017,01,27,19,20,6.70
2017,01,27,19,21,6.70
2017,01,27,19,22,6.70
2017,01,27,19,23,6.70
2017,01,27,19,24,6.70
2017,01,27,19,25,6.70
2017,01,27,19,26,6.70
2017,01,27,19,27,6.70
2017,01,27,19,28,6.70
2017,01,27,19,29,6.70
2017,01,27,19,30,6.70
2017,01,27,19,31,6.70
2017,01,27,19,32,6.70
2017,01,27,19,33,6.70
2017,01,27,19,34,6.70
2017,01,27,19,35,6.70
2017,01,27,19,36,6.70
2017,01,27,19,37,6.70
2017,01,27,19,38,6.70
2017,01,27,19,39,6.70
2017,01,27,19,40,6.70
2017,01,27,19,41,6.80
2017,01,27,19,42,6.80
2017,01,27,19,43,6.80
2017,01,27,19,44,6.80
2017,01,27,19,45,6.80
2017,01,27,19,46,6.80
2017,01,27,19,47,6.80
2017,01,27,19,48,6.80
2017,01,27,19,49,6.80
2017,01,27,19,50,6.80
2017,01,27,19,51,6.80
2017,01,27,19,52,6.80
2017,01,27,19,53,6.80
2017,01,27,19,54,6.80
2017,01,27,19,55,6.80
2017,01,27,19,56,6.80
2017,01,27,19,57,6.80
2017,01,27,19,58,6.80
2017,01,27,19,59,6.80
2017,01,27,20,00,6.80
2017,01,27,20,01,6.80
2017,01,27,20,02,6.80
2017,01,27,20,03,6.80
2017,01,27,20,04,6.80
2017,01,27,20,05,6.80
2017,01,27,20,06,6.80
2017,01,27,20,07,6.80
2017,01,27,20,08,6.80
2017,01,27,20,09,6.80
2017,01,27,20,10,6.80
2017,01,27,20,11,6.80
2017,01,27,20,12,6.80
2017,01,27,20,13,6.80
2017,01,27,20,14,6.80
2017,01,27,20,15,6.80
2017,01,27,20,16,6.80
2017,01,27,20,17,6.70
2017,01,27,20,18,6.70
2017,01,27,20,19,6.70
2017,01,27,20,20,6.70
2017,01,27,20,21,6.70
2017,01,27,20,22,6.70
2017,01,27,20,23,6.70
2017,01,27,20,24,6.70
2017,01,27,20,25,6.70
2017,01,27,20,26,6.70
2017,01,27,20,27,6.70
2017,01,27,20,28,6.70
2017,01,27,20,29,6.70
2017,01,27,20,30,6.70
2017,01,27,20,31,6.70
2017,01,27,20,32,6.70
2017,01,27,20,33,6.70
2017,01,27,20,34,6.70
2017,01,27,20,35,6.70
2017,01,27,20,36,6.60
2017,01,27,20,37,6.60
2017,01,27,20,38,6.60
2017,01,27,20,39,6.60
2017,01,27,20,40,6.60
2017,01,27,20,41,6.60
2017,01,27,20,42,6.60
2017,01,27,20,43,6.60
2017,01,27,20,44,6.60
2017,01,27,20,45,6.60
2017,01,27,20,46,6.60
2017,01,27,20,47,6.60
2017,01,27,20,48,6.60
2017,01,27,20,49,6.60
2017,01,27,20,50,6.60
2017,01,27,20,51,6.60
2017,01,27,20,52,6.60
2017,01,27,20,53,6.60
2017,01,27,20,54,6.60
2017,01,27,20,55,6.60
2017,01,27,20,56,6.50
2017,01,27,20,57,6.60
2017,01,27,20,58,6.50
2017,01,27,20,59,6.60
2017,01,27,21,00,6.60
2017,01,27,21,01,6.60
2017,01,27,21,02,6.60
2017,01,27,21,03,6.60
2017,01,27,21,04,6.60
2017,01,27,21,05,6.60
2017,01,27,21,06,6.60
2017,01,27,21,07,6.60
2017,01,27,21,08,6.60
2017,01,27,21,09,6.60
2017,01,27,21,10,6.60
2017,01,27,21,11,6.60
2017,01,27,21,12,6.60
2017,01,27,21,13,6.60
2017,01,27,21,14,6.60
2017,01,27,21,15,6.60
2017,01,27,21,16,6.60
2017,01,27,21,17,6.60
2017,01,27,21,18,6.60
2017,01,27,21,19,6.60
2017,01,27,21,20,6.60
2017,01,27,21,21,6.60
2017,01,27,21,22,6.60
2017,01,27,21,23,6.60
2017,01,27,21,24,6.70
2017,01,27,21,25,6.70
2017,01,27,21,26,6.70
2017,01,27,21,27,6.70
2017,01,27,21,28,6.70
2017,01,27,21,29,6.70
2017,01,27,21,30,6.70
2017,01,27,21,31,6.70
2017,01,27,21,32,6.70
2017,01,27,21,33,6.70
2017,01,27,21,34,6.70
2017,01,27,21,35,6.70
2017,01,27,21,36,6.70
2017,01,27,21,37,6.70
2017,01,27,21,38,6.70
2017,01,27,21,39,6.70
2017,01,27,21,40,6.70
2017,01,27,21,41,6.70
2017,01,27,21,42,6.70
2017,01,27,21,43,6.70
2017,01,27,21,44,6.70
2017,01,27,21,45,6.70
2017,01,27,21,46,6.70
2017,01,27,21,47,6.60
2017,01,27,21,48,6.60
2017,01,27,21,49,6.60
2017,01,27,21,50,6.60
2017,01,27,21,51,6.60
2017,01,27,21,52,6.60
2017,01,27,21,53,6.60
2017,01,27,21,54,6.50
2017,01,27,21,55,6.50
2017,01,27,21,56,6.50
2017,01,27,21,57,6.50
2017,01,27,21,58,6.50
2017,01,27,21,59,6.50
2017,01,27,22,00,6.50
2017,01,27,22,01,6.40
2017,01,27,22,02,6.40
2017,01,27,22,03,6.40
2017,01,27,22,04,6.40
2017,01,27,22,05,6.40
2017,01,27,22,06,6.30
2017,01,27,22,07,6.30
2017,01,27,22,08,6.30
2017,01,27,22,09,6.30
2017,01,27,22,10,6.30
2017,01,27,22,11,6.30